Year,Month,Day,Hour,Minute,Value (Times are PST for temperature in C)
2017,09,06,00,00,19.30
2017,09,06,00,01,19.20
2017,09,06,00,02,19.20
2017,09,06,00,03,19.20
2017,09,06,00,04,19.20
2017,09,06,00,05,19.20
2017,09,06,00,06,19.20
2017,09,06,00,07,19.20
2017,09,06,00,08,19.20
2017,09,06,00,09,19.10
2017,09,06,00,10,19.10
2017,09,06,00,11,19.10
2017,09,06,00,12,19.10
2017,09,06,00,13,19.10
2017,09,06,00,14,19.10
2017,09,06,00,15,19.10
2017,09,06,00,16,19.10
2017,09,06,00,17,19.20
2017,09,06,00,18,19.20
2017,09,06,00,19,19.20
2017,09,06,00,20,19.20
2017,09,06,00,21,19.20
2017,09,06,00,22,19.20
2017,09,06,00,23,19.20
2017,09,06,00,24,19.20
2017,09,06,00,25,19.20
2017,09,06,00,26,19.20
2017,09,06,00,27,19.10
2017,09,06,00,28,19.10
2017,09,06,00,29,19.10
2017,09,06,00,30,19.10
2017,09,06,00,31,19.10
2017,09,06,00,32,19.10
2017,09,06,00,33,19.10
2017,09,06,00,34,19.10
2017,09,06,00,35,19.10
2017,09,06,00,36,19.10
2017,09,06,00,37,19.10
2017,09,06,00,38,19.10
2017,09,06,00,39,19.10
2017,09,06,00,40,19.00
2017,09,06,00,41,19.00
2017,09,06,00,42,19.00
2017,09,06,00,43,19.00
2017,09,06,00,44,19.00
2017,09,06,00,45,19.00
2017,09,06,00,46,19.00
2017,09,06,00,47,19.00
2017,09,06,00,48,19.00
2017,09,06,00,49,19.00
2017,09,06,00,50,18.90
2017,09,06,00,51,18.90
2017,09,06,00,52,18.90
2017,09,06,00,53,18.90
2017,09,06,00,54,18.90
2017,09,06,00,55,18.90
2017,09,06,00,56,18.90
2017,09,06,00,57,19.00
2017,09,06,00,58,19.00
2017,09,06,00,59,19.00
2017,09,06,01,00,19.00
2017,09,06,01,01,19.00
2017,09,06,01,02,19.00
2017,09,06,01,03,19.00
2017,09,06,01,04,19.00
2017,09,06,01,05,19.00
2017,09,06,01,06,19.00
2017,09,06,01,07,19.00
2017,09,06,01,08,19.00
2017,09,06,01,09,19.00
2017,09,06,01,10,19.00
2017,09,06,01,11,19.00
2017,09,06,01,12,19.00
2017,09,06,01,13,19.00
2017,09,06,01,14,19.10
2017,09,06,01,15,19.10
2017,09,06,01,16,19.00
2017,09,06,01,17,19.00
2017,09,06,01,18,19.00
2017,09,06,01,19,19.00
2017,09,06,01,20,19.00
2017,09,06,01,21,19.00
2017,09,06,01,22,19.00
2017,09,06,01,23,18.90
2017,09,06,01,24,18.90
2017,09,06,01,25,18.90
2017,09,06,01,26,18.90
2017,09,06,01,27,18.90
2017,09,06,01,28,18.90
2017,09,06,01,29,18.90
2017,09,06,01,30,18.90
2017,09,06,01,31,18.90
2017,09,06,01,32,18.90
2017,09,06,01,33,18.90
2017,09,06,01,34,18.90
2017,09,06,01,35,18.90
2017,09,06,01,36,18.90
2017,09,06,01,37,18.90
2017,09,06,01,38,18.90
2017,09,06,01,39,18.90
2017,09,06,01,40,18.90
2017,09,06,01,41,18.90
2017,09,06,01,42,18.90
2017,09,06,01,43,18.90
2017,09,06,01,44,18.90
2017,09,06,01,45,18.90
2017,09,06,01,46,18.90
2017,09,06,01,47,18.90
2017,09,06,01,48,18.80
2017,09,06,01,49,18.80
2017,09,06,01,50,18.80
2017,09,06,01,51,18.80
2017,09,06,01,52,18.80
2017,09,06,01,53,18.80
2017,09,06,01,54,18.80
2017,09,06,01,55,18.80
2017,09,06,01,56,18.70
2017,09,06,01,57,18.70
2017,09,06,01,58,18.70
2017,09,06,01,59,18.70
2017,09,06,02,00,18.70
2017,09,06,02,01,18.70
2017,09,06,02,02,18.70
2017,09,06,02,03,18.70
2017,09,06,02,04,18.70
2017,09,06,02,05,18.60
2017,09,06,02,06,18.60
2017,09,06,02,07,18.60
2017,09,06,02,08,18.60
2017,09,06,02,09,18.60
2017,09,06,02,10,18.60
2017,09,06,02,11,18.60
2017,09,06,02,12,18.60
2017,09,06,02,13,18.60
2017,09,06,02,14,18.60
2017,09,06,02,15,18.60
2017,09,06,02,16,18.60
2017,09,06,02,17,18.60
2017,09,06,02,18,18.60
2017,09,06,02,19,18.60
2017,09,06,02,20,18.60
2017,09,06,02,21,18.50
2017,09,06,02,22,18.50
2017,09,06,02,23,18.50
2017,09,06,02,24,18.50
2017,09,06,02,25,18.40
2017,09,06,02,26,18.40
2017,09,06,02,27,18.40
2017,09,06,02,28,18.40
2017,09,06,02,29,18.40
2017,09,06,02,30,18.40
2017,09,06,02,31,18.40
2017,09,06,02,32,18.40
2017,09,06,02,33,18.40
2017,09,06,02,34,18.40
2017,09,06,02,35,18.30
2017,09,06,02,36,18.30
2017,09,06,02,37,18.30
2017,09,06,02,38,18.30
2017,09,06,02,39,18.30
2017,09,06,02,40,18.30
2017,09,06,02,41,18.30
2017,09,06,02,42,18.30
2017,09,06,02,43,18.30
2017,09,06,02,44,18.30
2017,09,06,02,45,18.30
2017,09,06,02,46,18.30
2017,09,06,02,47,18.30
2017,09,06,02,48,18.30
2017,09,06,02,49,18.30
2017,09,06,02,50,18.30
2017,09,06,02,51,18.30
2017,09,06,02,52,18.30
2017,09,06,02,53,18.30
2017,09,06,02,54,18.30
2017,09,06,02,55,18.30
2017,09,06,02,56,18.30
2017,09,06,02,57,18.30
2017,09,06,02,58,18.30
2017,09,06,02,59,18.30
2017,09,06,03,00,18.30
2017,09,06,03,01,18.30
2017,09,06,03,02,18.30
2017,09,06,03,03,18.20
2017,09,06,03,04,18.20
2017,09,06,03,05,18.20
2017,09,06,03,06,18.20
2017,09,06,03,07,18.20
2017,09,06,03,08,18.20
2017,09,06,03,09,18.20
2017,09,06,03,10,18.20
2017,09,06,03,11,18.20
2017,09,06,03,12,18.20
2017,09,06,03,13,18.10
2017,09,06,03,14,18.10
2017,09,06,03,15,18.10
2017,09,06,03,16,18.10
2017,09,06,03,17,18.10
2017,09,06,03,18,18.10
2017,09,06,03,19,18.10
2017,09,06,03,20,18.10
2017,09,06,03,21,18.10
2017,09,06,03,22,18.10
2017,09,06,03,23,18.10
2017,09,06,03,24,18.10
2017,09,06,03,25,18.00
2017,09,06,03,26,18.00
2017,09,06,03,27,18.00
2017,09,06,03,28,18.00
2017,09,06,03,29,17.90
2017,09,06,03,30,17.90
2017,09,06,03,31,17.90
2017,09,06,03,32,17.90
2017,09,06,03,33,17.90
2017,09,06,03,34,17.80
2017,09,06,03,35,17.80
2017,09,06,03,36,17.80
2017,09,06,03,37,17.80
2017,09,06,03,38,17.80
2017,09,06,03,39,17.80
2017,09,06,03,40,17.80
2017,09,06,03,41,17.80
2017,09,06,03,42,17.80
2017,09,06,03,43,17.70
2017,09,06,03,44,17.70
2017,09,06,03,45,17.70
2017,09,06,03,46,17.70
2017,09,06,03,47,17.70
2017,09,06,03,48,17.70
2017,09,06,03,49,17.70
2017,09,06,03,50,17.70
2017,09,06,03,51,17.70
2017,09,06,03,52,17.70
2017,09,06,03,53,17.70
2017,09,06,03,54,17.70
2017,09,06,03,55,17.70
2017,09,06,03,56,17.60
2017,09,06,03,57,17.60
2017,09,06,03,58,17.60
2017,09,06,03,59,17.60
2017,09,06,04,00,17.60
2017,09,06,04,01,17.60
2017,09,06,04,02,17.60
2017,09,06,04,03,17.60
2017,09,06,04,04,17.50
2017,09,06,04,05,17.50
2017,09,06,04,06,17.50
2017,09,06,04,07,17.50
2017,09,06,04,08,17.50
2017,09,06,04,09,17.40
2017,09,06,04,10,17.40
2017,09,06,04,11,17.40
2017,09,06,04,12,17.40
2017,09,06,04,13,17.40
2017,09,06,04,14,17.30
2017,09,06,04,15,17.20
2017,09,06,04,16,17.20
2017,09,06,04,17,17.20
2017,09,06,04,18,17.20
2017,09,06,04,19,17.20
2017,09,06,04,20,17.20
2017,09,06,04,21,17.10
2017,09,06,04,22,17.10
2017,09,06,04,23,17.10
2017,09,06,04,24,17.10
2017,09,06,04,25,17.10
2017,09,06,04,26,17.00
2017,09,06,04,27,17.00
2017,09,06,04,28,17.00
2017,09,06,04,29,17.00
2017,09,06,04,30,17.00
2017,09,06,04,31,16.90
2017,09,06,04,32,16.90
2017,09,06,04,33,16.90
2017,09,06,04,34,16.90
2017,09,06,04,35,16.90
2017,09,06,04,36,16.90
2017,09,06,04,37,16.90
2017,09,06,04,38,16.90
2017,09,06,04,39,16.90
2017,09,06,04,40,16.90
2017,09,06,04,41,16.90
2017,09,06,04,42,16.90
2017,09,06,04,43,16.90
2017,09,06,04,44,16.90
2017,09,06,04,45,16.90
2017,09,06,04,46,16.90
2017,09,06,04,47,16.90
2017,09,06,04,48,16.90
2017,09,06,04,49,16.90
2017,09,06,04,50,16.90
2017,09,06,04,51,16.90
2017,09,06,04,52,16.90
2017,09,06,04,53,16.90
2017,09,06,04,54,16.90
2017,09,06,04,55,16.80
2017,09,06,04,56,16.80
2017,09,06,04,57,16.80
2017,09,06,04,58,16.80
2017,09,06,04,59,16.80
2017,09,06,05,00,16.80
2017,09,06,05,01,16.80
2017,09,06,05,02,16.80
2017,09,06,05,03,16.70
2017,09,06,05,04,16.70
2017,09,06,05,05,16.70
2017,09,06,05,06,16.70
2017,09,06,05,07,16.70
2017,09,06,05,08,16.60
2017,09,06,05,09,16.60
2017,09,06,05,10,16.60
2017,09,06,05,11,16.60
2017,09,06,05,12,16.60
2017,09,06,05,13,16.60
2017,09,06,05,14,16.60
2017,09,06,05,15,16.60
2017,09,06,05,16,16.60
2017,09,06,05,17,16.60
2017,09,06,05,18,16.60
2017,09,06,05,19,16.50
2017,09,06,05,20,16.50
2017,09,06,05,21,16.50
2017,09,06,05,22,16.50
2017,09,06,05,23,16.40
2017,09,06,05,24,16.40
2017,09,06,05,25,16.40
2017,09,06,05,26,16.40
2017,09,06,05,27,16.40
2017,09,06,05,28,16.40
2017,09,06,05,29,16.40
2017,09,06,05,30,16.30
2017,09,06,05,31,16.30
2017,09,06,05,32,16.30
2017,09,06,05,33,16.30
2017,09,06,05,34,16.30
2017,09,06,05,35,16.30
2017,09,06,05,36,16.20
2017,09,06,05,37,16.20
2017,09,06,05,38,16.20
2017,09,06,05,39,16.20
2017,09,06,05,40,16.20
2017,09,06,05,41,16.20
2017,09,06,05,42,16.20
2017,09,06,05,43,16.20
2017,09,06,05,44,16.20
2017,09,06,05,45,16.20
2017,09,06,05,46,16.20
2017,09,06,05,47,16.20
2017,09,06,05,48,16.20
2017,09,06,05,49,16.10
2017,09,06,05,50,16.10
2017,09,06,05,51,16.10
2017,09,06,05,52,16.10
2017,09,06,05,53,16.00
2017,09,06,05,54,16.00
2017,09,06,05,55,16.00
2017,09,06,05,56,16.00
2017,09,06,05,57,16.00
2017,09,06,05,58,15.90
2017,09,06,05,59,15.90
2017,09,06,06,00,16.00
2017,09,06,06,01,16.00
2017,09,06,06,02,16.00
2017,09,06,06,03,16.00
2017,09,06,06,04,16.00
2017,09,06,06,05,16.00
2017,09,06,06,06,16.00
2017,09,06,06,07,15.90
2017,09,06,06,08,15.90
2017,09,06,06,09,15.90
2017,09,06,06,10,15.90
2017,09,06,06,11,15.90
2017,09,06,06,12,15.90
2017,09,06,06,13,15.90
2017,09,06,06,14,15.90
2017,09,06,06,15,15.90
2017,09,06,06,16,15.90
2017,09,06,06,17,15.90
2017,09,06,06,18,15.90
2017,09,06,06,19,15.90
2017,09,06,06,20,15.90
2017,09,06,06,21,15.90
2017,09,06,06,22,15.90
2017,09,06,06,23,15.90
2017,09,06,06,24,16.00
2017,09,06,06,25,15.90
2017,09,06,06,26,16.00
2017,09,06,06,27,16.00
2017,09,06,06,28,15.90
2017,09,06,06,29,15.90
2017,09,06,06,30,15.90
2017,09,06,06,31,15.90
2017,09,06,06,32,15.90
2017,09,06,06,33,15.90
2017,09,06,06,34,15.90
2017,09,06,06,35,15.90
2017,09,06,06,36,15.80
2017,09,06,06,37,15.80
2017,09,06,06,38,15.80
2017,09,06,06,39,15.80
2017,09,06,06,40,15.80
2017,09,06,06,41,15.80
2017,09,06,06,42,15.80
2017,09,06,06,43,15.80
2017,09,06,06,44,15.70
2017,09,06,06,45,15.70
2017,09,06,06,46,15.70
2017,09,06,06,47,15.70
2017,09,06,06,48,15.70
2017,09,06,06,49,15.70
2017,09,06,06,50,15.70
2017,09,06,06,51,15.70
2017,09,06,06,52,15.70
2017,09,06,06,53,15.70
2017,09,06,06,54,15.70
2017,09,06,06,55,15.60
2017,09,06,06,56,15.60
2017,09,06,06,57,15.60
2017,09,06,06,58,15.60
2017,09,06,06,59,15.60
2017,09,06,07,00,15.60
2017,09,06,07,01,15.60
2017,09,06,07,02,15.60
2017,09,06,07,03,15.50
2017,09,06,07,04,15.50
2017,09,06,07,05,15.50
2017,09,06,07,06,15.50
2017,09,06,07,07,15.50
2017,09,06,07,08,15.50
2017,09,06,07,09,15.50
2017,09,06,07,10,15.60
2017,09,06,07,11,15.60
2017,09,06,07,12,15.60
2017,09,06,07,13,15.60
2017,09,06,07,14,15.60
2017,09,06,07,15,15.60
2017,09,06,07,16,15.60
2017,09,06,07,17,15.60
2017,09,06,07,18,15.60
2017,09,06,07,19,15.60
2017,09,06,07,20,15.60
2017,09,06,07,21,15.60
2017,09,06,07,22,15.60
2017,09,06,07,23,15.60
2017,09,06,07,24,15.60
2017,09,06,07,25,15.60
2017,09,06,07,26,15.60
2017,09,06,07,27,15.60
2017,09,06,07,28,15.60
2017,09,06,07,29,15.60
2017,09,06,07,30,15.60
2017,09,06,07,31,15.60
2017,09,06,07,32,15.70
2017,09,06,07,33,15.70
2017,09,06,07,34,15.70
2017,09,06,07,35,15.70
2017,09,06,07,36,15.70
2017,09,06,07,37,15.80
2017,09,06,07,38,15.80
2017,09,06,07,39,15.80
2017,09,06,07,40,15.80
2017,09,06,07,41,15.80
2017,09,06,07,42,15.80
2017,09,06,07,43,15.80
2017,09,06,07,44,15.80
2017,09,06,07,45,15.80
2017,09,06,07,46,15.80
2017,09,06,07,47,15.90
2017,09,06,07,48,15.90
2017,09,06,07,49,15.90
2017,09,06,07,50,16.00
2017,09,06,07,51,16.00
2017,09,06,07,52,16.10
2017,09,06,07,53,16.10
2017,09,06,07,54,16.10
2017,09,06,07,55,16.10
2017,09,06,07,56,16.20
2017,09,06,07,57,16.20
2017,09,06,07,58,16.20
2017,09,06,07,59,16.20
2017,09,06,08,00,16.30
2017,09,06,08,01,16.30
2017,09,06,08,02,16.30
2017,09,06,08,03,16.30
2017,09,06,08,04,16.30
2017,09,06,08,05,16.40
2017,09,06,08,06,16.40
2017,09,06,08,07,16.40
2017,09,06,08,08,16.40
2017,09,06,08,09,16.50
2017,09,06,08,10,16.50
2017,09,06,08,11,16.60
2017,09,06,08,12,16.60
2017,09,06,08,13,16.70
2017,09,06,08,14,16.70
2017,09,06,08,15,16.70
2017,09,06,08,16,16.80
2017,09,06,08,17,16.80
2017,09,06,08,18,16.80
2017,09,06,08,19,16.80
2017,09,06,08,20,16.90
2017,09,06,08,21,16.90
2017,09,06,08,22,17.00
2017,09,06,08,23,17.00
2017,09,06,08,24,17.10
2017,09,06,08,25,17.10
2017,09,06,08,26,17.20
2017,09,06,08,27,17.20
2017,09,06,08,28,17.30
2017,09,06,08,29,17.30
2017,09,06,08,30,17.40
2017,09,06,08,31,17.40
2017,09,06,08,32,17.50
2017,09,06,08,33,17.50
2017,09,06,08,34,17.60
2017,09,06,08,35,17.60
2017,09,06,08,36,17.70
2017,09,06,08,37,17.70
2017,09,06,08,38,17.80
2017,09,06,08,39,17.80
2017,09,06,08,40,17.80
2017,09,06,08,41,17.90
2017,09,06,08,42,17.90
2017,09,06,08,43,18.00
2017,09,06,08,44,18.10
2017,09,06,08,45,18.10
2017,09,06,08,46,18.20
2017,09,06,08,47,18.30
2017,09,06,08,48,18.30
2017,09,06,08,49,18.30
2017,09,06,08,50,18.40
2017,09,06,08,51,18.40
2017,09,06,08,52,18.40
2017,09,06,08,53,18.50
2017,09,06,08,54,18.50
2017,09,06,08,55,18.60
2017,09,06,08,56,18.70
2017,09,06,08,57,18.70
2017,09,06,08,58,18.80
2017,09,06,08,59,18.80
2017,09,06,09,00,18.90
2017,09,06,09,01,19.00
2017,09,06,09,02,19.10
2017,09,06,09,03,19.10
2017,09,06,09,04,19.20
2017,09,06,09,05,19.30
2017,09,06,09,06,19.30
2017,09,06,09,07,19.40
2017,09,06,09,08,19.50
2017,09,06,09,09,19.60
2017,09,06,09,10,19.60
2017,09,06,09,11,19.70
2017,09,06,09,12,19.80
2017,09,06,09,13,19.80
2017,09,06,09,14,19.80
2017,09,06,09,15,19.90
2017,09,06,09,16,19.90
2017,09,06,09,17,19.90
2017,09,06,09,18,19.90
2017,09,06,09,19,19.90
2017,09,06,09,20,19.90
2017,09,06,09,21,19.90
2017,09,06,09,22,19.90
2017,09,06,09,23,19.90
2017,09,06,09,24,19.90
2017,09,06,09,25,19.90
2017,09,06,09,26,19.90
2017,09,06,09,27,19.90
2017,09,06,09,28,19.80
2017,09,06,09,29,19.80
2017,09,06,09,30,19.90
2017,09,06,09,31,19.90
2017,09,06,09,32,19.90
2017,09,06,09,33,19.90
2017,09,06,09,34,19.90
2017,09,06,09,35,19.90
2017,09,06,09,36,19.90
2017,09,06,09,37,19.90
2017,09,06,09,38,20.00
2017,09,06,09,39,20.00
2017,09,06,09,40,20.00
2017,09,06,09,41,20.10
2017,09,06,09,42,20.10
2017,09,06,09,43,20.20
2017,09,06,09,44,20.20
2017,09,06,09,45,20.20
2017,09,06,09,46,20.20
2017,09,06,09,47,20.20
2017,09,06,09,48,20.10
2017,09,06,09,49,20.20
2017,09,06,09,50,20.20
2017,09,06,09,51,20.20
2017,09,06,09,52,20.20
2017,09,06,09,53,20.20
2017,09,06,09,54,20.20
2017,09,06,09,55,20.20
2017,09,06,09,56,20.20
2017,09,06,09,57,20.30
2017,09,06,09,58,20.30
2017,09,06,09,59,20.30
2017,09,06,10,00,20.30
2017,09,06,10,01,20.40
2017,09,06,10,02,20.40
2017,09,06,10,03,20.50
2017,09,06,10,04,20.50
2017,09,06,10,05,20.40
2017,09,06,10,06,20.40
2017,09,06,10,07,20.50
2017,09,06,10,08,20.50
2017,09,06,10,09,20.40
2017,09,06,10,10,20.40
2017,09,06,10,11,20.40
2017,09,06,10,12,20.40
2017,09,06,10,13,20.50
2017,09,06,10,14,20.50
2017,09,06,10,15,20.60
2017,09,06,10,16,20.60
2017,09,06,10,17,20.60
2017,09,06,10,18,20.70
2017,09,06,10,19,20.70
2017,09,06,10,20,20.70
2017,09,06,10,21,20.80
2017,09,06,10,22,20.80
2017,09,06,10,23,20.90
2017,09,06,10,24,20.90
2017,09,06,10,25,20.90
2017,09,06,10,26,21.00
2017,09,06,10,27,21.00
2017,09,06,10,28,21.00
2017,09,06,10,29,20.90
2017,09,06,10,30,20.90
2017,09,06,10,31,20.90
2017,09,06,10,32,21.00
2017,09,06,10,33,21.00
2017,09,06,10,34,21.10
2017,09,06,10,35,21.10
2017,09,06,10,36,21.10
2017,09,06,10,37,21.10
2017,09,06,10,38,21.20
2017,09,06,10,39,21.10
2017,09,06,10,40,21.10
2017,09,06,10,41,21.10
2017,09,06,10,42,21.10
2017,09,06,10,43,21.20
2017,09,06,10,44,21.20
2017,09,06,10,45,21.20
2017,09,06,10,46,21.30
2017,09,06,10,47,21.30
2017,09,06,10,48,21.40
2017,09,06,10,49,21.40
2017,09,06,10,50,21.50
2017,09,06,10,51,21.60
2017,09,06,10,52,21.60
2017,09,06,10,53,21.70
2017,09,06,10,54,21.80
2017,09,06,10,55,21.80
2017,09,06,10,56,21.90
2017,09,06,10,57,22.00
2017,09,06,10,58,22.10
2017,09,06,10,59,22.10
2017,09,06,11,00,22.20
2017,09,06,11,01,22.20
2017,09,06,11,02,22.20
2017,09,06,11,03,22.20
2017,09,06,11,04,22.10
2017,09,06,11,05,22.10
2017,09,06,11,06,22.10
2017,09,06,11,07,22.20
2017,09,06,11,08,22.20
2017,09,06,11,09,22.20
2017,09,06,11,10,22.20
2017,09,06,11,11,22.20
2017,09,06,11,12,22.20
2017,09,06,11,13,22.20
2017,09,06,11,14,22.20
2017,09,06,11,15,22.20
2017,09,06,11,16,22.30
2017,09,06,11,17,22.30
2017,09,06,11,18,22.30
2017,09,06,11,19,22.30
2017,09,06,11,20,22.40
2017,09,06,11,21,22.50
2017,09,06,11,22,22.50
2017,09,06,11,23,22.60
2017,09,06,11,24,22.70
2017,09,06,11,25,22.80
2017,09,06,11,26,22.90
2017,09,06,11,27,22.90
2017,09,06,11,28,22.90
2017,09,06,11,29,23.00
2017,09,06,11,30,23.00
2017,09,06,11,31,23.10
2017,09,06,11,32,23.10
2017,09,06,11,33,23.10
2017,09,06,11,34,23.10
2017,09,06,11,35,23.10
2017,09,06,11,36,23.20
2017,09,06,11,37,23.20
2017,09,06,11,38,23.20
2017,09,06,11,39,23.20
2017,09,06,11,40,23.30
2017,09,06,11,41,23.30
2017,09,06,11,42,23.30
2017,09,06,11,43,23.30
2017,09,06,11,44,23.30
2017,09,06,11,45,23.40
2017,09,06,11,46,23.30
2017,09,06,11,47,23.40
2017,09,06,11,48,23.40
2017,09,06,11,49,23.40
2017,09,06,11,50,23.50
2017,09,06,11,51,23.50
2017,09,06,11,52,23.60
2017,09,06,11,53,23.60
2017,09,06,11,54,23.60
2017,09,06,11,55,23.60
2017,09,06,11,56,23.60
2017,09,06,11,57,23.60
2017,09,06,11,58,23.60
2017,09,06,11,59,23.60
2017,09,06,12,00,23.60
2017,09,06,12,01,23.60
2017,09,06,12,02,23.60
2017,09,06,12,03,23.60
2017,09,06,12,04,23.60
2017,09,06,12,05,23.70
2017,09,06,12,06,23.70
2017,09,06,12,07,23.70
2017,09,06,12,08,23.70
2017,09,06,12,09,23.80
2017,09,06,12,10,23.90
2017,09,06,12,11,23.90
2017,09,06,12,12,24.00
2017,09,06,12,13,24.00
2017,09,06,12,14,24.10
2017,09,06,12,15,24.10
2017,09,06,12,16,24.10
2017,09,06,12,17,24.10
2017,09,06,12,18,24.10
2017,09,06,12,19,24.10
2017,09,06,12,20,24.10
2017,09,06,12,21,24.00
2017,09,06,12,22,24.00
2017,09,06,12,23,23.90
2017,09,06,12,24,23.70
2017,09,06,12,25,23.70
2017,09,06,12,26,23.70
2017,09,06,12,27,23.60
2017,09,06,12,28,23.60
2017,09,06,12,29,23.60
2017,09,06,12,30,23.60
2017,09,06,12,31,23.50
2017,09,06,12,32,23.50
2017,09,06,12,33,23.50
2017,09,06,12,34,23.50
2017,09,06,12,35,23.50
2017,09,06,12,36,23.50
2017,09,06,12,37,23.50
2017,09,06,12,38,23.50
2017,09,06,12,39,23.50
2017,09,06,12,40,23.40
2017,09,06,12,41,23.40
2017,09,06,12,42,23.50
2017,09,06,12,43,23.50
2017,09,06,12,44,23.50
2017,09,06,12,45,23.50
2017,09,06,12,46,23.60
2017,09,06,12,47,23.60
2017,09,06,12,48,23.60
2017,09,06,12,49,23.70
2017,09,06,12,50,23.70
2017,09,06,12,51,23.60
2017,09,06,12,52,23.50
2017,09,06,12,53,23.40
2017,09,06,12,54,23.40
2017,09,06,12,55,23.40
2017,09,06,12,56,23.30
2017,09,06,12,57,23.30
2017,09,06,12,58,23.30
2017,09,06,12,59,23.30
2017,09,06,13,00,23.40
2017,09,06,13,01,23.40
2017,09,06,13,02,23.40
2017,09,06,13,03,23.40
2017,09,06,13,04,23.40
2017,09,06,13,05,23.30
2017,09,06,13,06,23.30
2017,09,06,13,07,23.30
2017,09,06,13,08,23.30
2017,09,06,13,09,23.30
2017,09,06,13,10,23.20
2017,09,06,13,11,23.20
2017,09,06,13,12,23.20
2017,09,06,13,13,23.20
2017,09,06,13,14,23.20
2017,09,06,13,15,23.20
2017,09,06,13,16,23.30
2017,09,06,13,17,23.30
2017,09,06,13,18,23.40
2017,09,06,13,19,23.40
2017,09,06,13,20,23.40
2017,09,06,13,21,23.50
2017,09,06,13,22,23.50
2017,09,06,13,23,23.60
2017,09,06,13,24,23.60
2017,09,06,13,25,23.70
2017,09,06,13,26,23.70
2017,09,06,13,27,23.70
2017,09,06,13,28,23.70
2017,09,06,13,29,23.70
2017,09,06,13,30,23.70
2017,09,06,13,31,23.70
2017,09,06,13,32,23.70
2017,09,06,13,33,23.80
2017,09,06,13,34,23.80
2017,09,06,13,35,23.90
2017,09,06,13,36,24.00
2017,09,06,13,37,24.10
2017,09,06,13,38,24.20
2017,09,06,13,39,24.20
2017,09,06,13,40,24.30
2017,09,06,13,41,24.30
2017,09,06,13,42,24.20
2017,09,06,13,43,24.10
2017,09,06,13,44,24.10
2017,09,06,13,45,24.10
2017,09,06,13,46,24.20
2017,09,06,13,47,24.20
2017,09,06,13,48,24.20
2017,09,06,13,49,24.20
2017,09,06,13,50,24.20
2017,09,06,13,51,24.20
2017,09,06,13,52,24.20
2017,09,06,13,53,24.10
2017,09,06,13,54,24.10
2017,09,06,13,55,24.10
2017,09,06,13,56,24.10
2017,09,06,13,57,24.10
2017,09,06,13,58,24.10
2017,09,06,13,59,24.20
2017,09,06,14,00,24.20
2017,09,06,14,01,24.30
2017,09,06,14,02,24.30
2017,09,06,14,03,24.30
2017,09,06,14,04,24.30
2017,09,06,14,05,24.30
2017,09,06,14,06,24.40
2017,09,06,14,07,24.40
2017,09,06,14,08,24.50
2017,09,06,14,09,24.60
2017,09,06,14,10,24.60
2017,09,06,14,11,24.70
2017,09,06,14,12,24.70
2017,09,06,14,13,24.80
2017,09,06,14,14,24.80
2017,09,06,14,15,24.90
2017,09,06,14,16,24.90
2017,09,06,14,17,24.90
2017,09,06,14,18,24.90
2017,09,06,14,19,24.90
2017,09,06,14,20,24.90
2017,09,06,14,21,24.90
2017,09,06,14,22,25.00
2017,09,06,14,23,25.10
2017,09,06,14,24,25.10
2017,09,06,14,25,25.20
2017,09,06,14,26,25.20
2017,09,06,14,27,25.20
2017,09,06,14,28,25.20
2017,09,06,14,29,25.20
2017,09,06,14,30,25.10
2017,09,06,14,31,25.10
2017,09,06,14,32,25.10
2017,09,06,14,33,25.20
2017,09,06,14,34,25.20
2017,09,06,14,35,25.20
2017,09,06,14,36,25.20
2017,09,06,14,37,25.20
2017,09,06,14,38,25.20
2017,09,06,14,39,25.30
2017,09,06,14,40,25.30
2017,09,06,14,41,25.30
2017,09,06,14,42,25.30
2017,09,06,14,43,25.20
2017,09,06,14,44,25.20
2017,09,06,14,45,25.20
2017,09,06,14,46,25.10
2017,09,06,14,47,25.10
2017,09,06,14,48,25.00
2017,09,06,14,49,25.00
2017,09,06,14,50,25.00
2017,09,06,14,51,25.00
2017,09,06,14,52,24.90
2017,09,06,14,53,24.80
2017,09,06,14,54,24.70
2017,09,06,14,55,24.50
2017,09,06,14,56,24.40
2017,09,06,14,57,24.30
2017,09,06,14,58,24.20
2017,09,06,14,59,24.00
2017,09,06,15,00,23.90
2017,09,06,15,01,23.90
2017,09,06,15,02,23.80
2017,09,06,15,03,23.70
2017,09,06,15,04,23.70
2017,09,06,15,05,23.70
2017,09,06,15,06,23.60
2017,09,06,15,07,23.50
2017,09,06,15,08,23.40
2017,09,06,15,09,23.40
2017,09,06,15,10,23.30
2017,09,06,15,11,23.20
2017,09,06,15,12,23.10
2017,09,06,15,13,23.10
2017,09,06,15,14,23.10
2017,09,06,15,15,23.20
2017,09,06,15,16,23.20
2017,09,06,15,17,23.20
2017,09,06,15,18,23.20
2017,09,06,15,19,23.20
2017,09,06,15,20,23.10
2017,09,06,15,21,23.10
2017,09,06,15,22,23.10
2017,09,06,15,23,23.10
2017,09,06,15,24,23.10
2017,09,06,15,25,23.10
2017,09,06,15,26,23.10
2017,09,06,15,27,23.10
2017,09,06,15,28,23.10
2017,09,06,15,29,23.20
2017,09,06,15,30,23.10
2017,09,06,15,31,23.10
2017,09,06,15,32,23.10
2017,09,06,15,33,23.10
2017,09,06,15,34,23.10
2017,09,06,15,35,23.10
2017,09,06,15,36,23.00
2017,09,06,15,37,23.00
2017,09,06,15,38,22.90
2017,09,06,15,39,22.90
2017,09,06,15,40,22.90
2017,09,06,15,41,22.90
2017,09,06,15,42,22.80
2017,09,06,15,43,22.80
2017,09,06,15,44,22.80
2017,09,06,15,45,22.80
2017,09,06,15,46,22.80
2017,09,06,15,47,22.80
2017,09,06,15,48,22.80
2017,09,06,15,49,22.80
2017,09,06,15,50,22.80
2017,09,06,15,51,22.90
2017,09,06,15,52,22.90
2017,09,06,15,53,22.80
2017,09,06,15,54,22.80
2017,09,06,15,55,22.80
2017,09,06,15,56,22.80
2017,09,06,15,57,22.80
2017,09,06,15,58,22.80
2017,09,06,15,59,22.80
2017,09,06,16,00,22.90
2017,09,06,16,01,22.90
2017,09,06,16,02,22.90
2017,09,06,16,03,22.90
2017,09,06,16,04,22.90
2017,09,06,16,05,22.90
2017,09,06,16,06,23.00
2017,09,06,16,07,23.00
2017,09,06,16,08,23.00
2017,09,06,16,09,23.10
2017,09,06,16,10,23.10
2017,09,06,16,11,23.10
2017,09,06,16,12,23.20
2017,09,06,16,13,23.20
2017,09,06,16,14,23.20
2017,09,06,16,15,23.20
2017,09,06,16,16,23.20
2017,09,06,16,17,23.20
2017,09,06,16,18,23.20
2017,09,06,16,19,23.30
2017,09,06,16,20,23.30
2017,09,06,16,21,23.30
2017,09,06,16,22,23.30
2017,09,06,16,23,23.30
2017,09,06,16,24,23.30
2017,09,06,16,25,23.30
2017,09,06,16,26,23.30
2017,09,06,16,27,23.30
2017,09,06,16,28,23.30
2017,09,06,16,29,23.30
2017,09,06,16,30,23.40
2017,09,06,16,31,23.40
2017,09,06,16,32,23.40
2017,09,06,16,33,23.40
2017,09,06,16,34,23.40
2017,09,06,16,35,23.40
2017,09,06,16,36,23.50
2017,09,06,16,37,23.50
2017,09,06,16,38,23.60
2017,09,06,16,39,23.60
2017,09,06,16,40,23.60
2017,09,06,16,41,23.60
2017,09,06,16,42,23.60
2017,09,06,16,43,23.60
2017,09,06,16,44,23.60
2017,09,06,16,45,23.60
2017,09,06,16,46,23.60
2017,09,06,16,47,23.50
2017,09,06,16,48,23.50
2017,09,06,16,49,23.40
2017,09,06,16,50,23.40
2017,09,06,16,51,23.40
2017,09,06,16,52,23.40
2017,09,06,16,53,23.40
2017,09,06,16,54,23.40
2017,09,06,16,55,23.40
2017,09,06,16,56,23.40
2017,09,06,16,57,23.40
2017,09,06,16,58,23.40
2017,09,06,16,59,23.40
2017,09,06,17,00,23.40
2017,09,06,17,01,23.40
2017,09,06,17,02,23.40
2017,09,06,17,03,23.40
2017,09,06,17,04,23.50
2017,09,06,17,05,23.50
2017,09,06,17,06,23.50
2017,09,06,17,07,23.60
2017,09,06,17,08,23.60
2017,09,06,17,09,23.60
2017,09,06,17,10,23.70
2017,09,06,17,11,23.70
2017,09,06,17,12,23.70
2017,09,06,17,13,23.70
2017,09,06,17,14,23.80
2017,09,06,17,15,23.80
2017,09,06,17,16,23.80
2017,09,06,17,17,23.80
2017,09,06,17,18,23.80
2017,09,06,17,19,23.80